Temp
65 58 54 59 63 63 63 62 63 69 76 73 69 68 73 79 80 82 83 84 85 86 90 92 92 91 89 89 88 88 88 87 85 88 89 87 86 86 87 87 85 83 83 82
58 52 60 63 62 60 60 57 58 68 72 71 70 68 73 77 79 82 83 83 84 86 88 89 89 88 88 88 88 87 87 86 84 88 86 90 88 89 88 87 84 83 83 81
53 58 64 60 57 54 56 54 56 59 66 69 67 64 69 77 80 82 82 83 84 83 83 84 85 87 89 88 88 88 87 86 85 85 85 83 86 84 84 84 83 83 82 81
55 61 58 56 54 56 49 61 60 59 58 54 66 52 66 71 73 77 79 81 83 84 85 84 84 86 87 89 92 90 87 85 85 83 84 81 84 84 87 86 86 82 82 82
52 55 54 51 54 59 54 62 60 59 56 57 61 56 63 73 70 75 78 80 82 84 84 86 88 89 91 91 91 89 86 85 84 82 84 83 84 88 87 87 80 81 80 81
55 63 59 56 59 60 62 58 57 58 56 45 55 57 59 66 70 74 79 81 82 84 86 87 89 89 88 91 90 88 85 83 83 81 81 81 83 83 84 82 82 83 82 82
47 54 59 57 53 59 56 50 38 38 43 44 58 55 58 71 72 75 77 77 80 83 85 86 87 88 89 88 88 87 84 82 81 81 81 82 81 81 80 81 84 82 83 83
40 35 52 58 54 52 52 50 41 35 41 48 58 50 60 72 77 79 79 77 79 81 84 84 86 87 88 89 87 87 84 82 81 82 82 82 81 85 84 84 84 85 85 83
35 40 54 56 57 58 52 45 57 47 52 51 56 59 67 71 72 74 76 76 76 78 81 82 83 84 85 87 85 85 83 82 82 82 81 81 83 83 83 81 81 83 83 83
45 36 49 50 53 58 55 59 47 50 36 38 52 54 57 65 68 73 76 73 76 78 81 81 79 78 82 85 83 84 84 82 82 82 82 82 81 81 81 80 81 80 80 81
53 43 41 50 45 38 52 51 51 53 53 45 45 54 69 68 68 69 71 73 75 78 80 81 77 74 81 84 85 83 83 82 81 82 82 81 81 81 81 80 80 80 79 79
52 45 40 46 54 55 52 47 50 43 44 53 52 54 70 70 70 71 71 73 76 78 82 82 77 70 81 83 83 83 82 83 83 82 82 81 81 81 79 79 80 79 78 80
46 44 37 42 49 53 49 51 54 54 49 46 47 54 69 69 71 72 71 72 74 77 81 83 79 69 75 82 83 82 83 83 83 83 82 80 79 79 78 78 78 79 79 79
49 43 40 36 42 47 43 48 52 48 44 49 51 56 64 67 69 71 71 71 73 76 79 82 81 70 71 81 83 82 83 83 83 83 82 79 78 78 78 78 78 78 79 79
45 36 45 48 49 49 47 47 50 49 51 45 52 54 61 65 67 68 70 71 72 75 78 80 81 73 71 78 81 82 82 83 83 82 81 78 79 79 79 78 78 79 78 80
47 37 45 43 49 49 46 50 51 51 52 52 53 53 64 67 69 68 69 71 72 74 76 79 80 77 72 76 79 80 81 81 82 81 80 80 80 79 78 77 77 77 78 79
39 41 37 37 46 45 40 49 52 53 56 55 49 58 65 64 65 67 69 71 71 72 75 77 79 80 74 78 79 79 81 82 81 82 81 80 80 79 78 78 78 77 75 76
36 40 39 37 40 27 49 54 53 49 52 54 55 56 61 64 67 70 73 72 72 73 75 77 80 81 76 79 81 82 82 82 82 82 81 81 81 79 79 78 76 76 74 74
40 37 35 33 32 40 45 46 43 42 41 52 52 56 61 65 67 66 71 74 73 74 76 78 82 81 76 77 81 82 81 82 83 82 81 82 81 79 78 77 75 74 74 73
38 36 34 36 27 26 37 47 47 43 34 44 44 47 53 56 55 64 72 74 73 74 76 77 82 80 75 77 81 80 80 81 82 83 83 83 82 80 78 76 75 75 74 72
35 34 31 34 31 39 47 49 43 32 40 48 47 47 49 46 55 62 69 69 72 74 75 78 81 78 74 79 81 80 80 81 84 85 84 83 81 79 78 75 75 74 72 72
34 33 35 34 31 30 52 45 34 48 47 45 48 48 46 51 57 58 65 67 70 73 76 80 78 76 76 80 81 80 79 83 85 85 84 81 80 80 78 75 75 73 71 70
39 42 35 35 38 50 51 45 47 46 44 45 47 49 48 49 53 58 62 67 71 73 76 80 77 76 76 81 82 80 81 84 84 83 81 80 80 80 77 74 71 70 70 70
49 53 42 42 49 51 51 49 48 47 46 48 49 50 51 51 57 61 66 69 72 76 77 78 78 77 78 81 82 83 83 85 83 81 80 80 79 76 76 77 72 72 71 70
49 49 45 46 51 50 47 46 47 48 48 48 50 51 54 59 60 62 65 69 72 76 79 79 80 80 80 82 83 84 84 84 81 80 80 79 80 78 77 75 70 72 69 66
53 46 38 41 51 44 43 47 49 48 47 48 48 50 54 56 58 63 62 69 70 77 81 79 81 81 82 83 84 85 85 84 81 78 80 81 81 78 77 75 70 44 46 45
MSLP
1008.92 1008.34 1006.74 1006.01 1005.71 1004.81 1003.69 1001.86 999.98 999.21 999.45 999.15 999.13 998.76 998.37 998.57 998.08 997.93 997.87 997.93 998.21 998.56 998.91 999.21 999.56 1000.01 1000.85 1000.73 1000.52 1000.61 1000.80 1001.11 1001.52 1001.17 1000.81 1001.01 1001.24 1001.95 1002.38 1002.98 1003.62 1004.08 1004.57 1005.20
1008.35 1006.89 1006.79 1006.40 1005.88 1004.79 1003.85 1002.56 1000.78 999.76 999.64 999.25 998.42 997.71 998.00 997.84 997.17 997.17 997.27 997.54 997.78 998.06 998.24 998.67 999.12 999.42 999.59 999.61 999.86 1000.11 1000.32 1000.52 1000.70 1000.48 1000.31 1000.23 1000.72 1001.16 1001.88 1002.61 1003.25 1003.67 1004.14 1004.80
1007.30 1005.94 1006.06 1005.85 1005.63 1005.15 1004.02 1002.83 1001.85 1000.80 1000.14 999.50 998.85 997.45 997.01 996.74 996.50 996.62 996.79 997.30 997.62 997.84 997.98 998.11 998.17 998.25 998.37 998.80 999.02 999.33 999.59 999.91 999.97 1000.10 1000.28 1000.66 1000.79 1001.48 1001.92 1002.13 1002.63 1003.32 1003.93 1004.58
1006.75 1006.15 1005.92 1005.57 1005.33 1005.08 1003.77 1003.52 1002.89 1001.68 1000.88 998.90 999.30 996.26 996.01 996.14 995.93 996.03 996.39 996.57 996.74 997.03 997.25 997.34 997.37 997.29 997.49 997.65 997.88 998.34 998.80 999.20 999.20 999.84 999.55 999.91 999.94 1000.22 1000.65 1001.17 1001.86 1003.01 1003.64 1004.19
1006.45 1006.04 1005.62 1005.24 1004.73 1004.40 1003.15 1003.41 1002.43 1002.12 1000.95 999.94 997.87 996.82 995.07 994.72 994.49 994.69 995.17 995.66 996.07 996.18 996.49 996.16 996.07 995.92 996.04 996.50 996.89 997.42 998.26 998.38 998.56 999.03 999.16 999.65 999.60 999.71 1000.39 1000.85 1001.98 1002.51 1003.41 1004.02
1006.75 1006.50 1006.03 1005.50 1004.64 1003.65 1003.22 1002.89 1002.50 1001.92 1001.11 999.41 998.10 996.86 995.06 994.68 994.43 994.28 994.63 995.11 995.48 995.62 995.52 995.62 995.52 995.45 995.44 995.64 996.15 997.04 997.55 997.80 998.20 998.74 999.12 999.39 999.36 999.79 1000.23 1000.95 1001.58 1002.20 1003.00 1003.85
1007.06 1005.65 1005.60 1006.30 1005.14 1003.53 1003.51 1002.65 1002.01 1001.11 999.03 997.36 997.73 997.03 995.52 994.15 994.59 994.01 994.24 995.15 995.51 995.30 995.15 995.03 994.79 994.44 994.41 994.90 995.55 996.22 996.83 997.39 998.04 998.49 998.84 999.15 999.66 1000.02 1000.47 1000.93 1001.15 1001.86 1002.58 1003.28
1007.54 1006.35 1005.57 1005.28 1005.01 1003.47 1003.11 1002.34 1001.29 999.31 997.95 996.94 997.00 995.48 994.66 995.11 994.78 994.81 994.98 995.37 995.40 995.10 994.93 994.81 994.50 994.29 994.25 994.34 994.98 995.56 996.25 997.02 997.84 998.21 998.55 999.20 999.69 999.92 1000.47 1000.72 1001.33 1001.77 1002.28 1003.08
1008.61 1006.75 1006.27 1005.56 1005.13 1004.23 1002.67 1002.10 1001.17 1000.02 997.89 996.24 995.25 995.85 995.46 994.92 994.80 994.88 994.81 995.15 995.41 995.34 994.97 994.75 994.78 994.57 994.28 994.34 994.86 995.42 996.00 996.87 997.62 998.00 998.62 999.22 999.49 999.95 1000.49 1001.23 1001.81 1002.20 1002.60 1003.34
1008.92 1007.78 1006.52 1006.08 1005.96 1003.89 1002.67 1002.13 1000.68 999.65 998.30 996.29 994.59 994.29 993.84 993.21 994.16 994.31 994.39 995.28 995.59 995.33 994.85 994.95 995.22 995.06 994.54 994.43 994.98 995.52 996.18 996.84 997.40 998.10 998.73 999.27 999.76 1000.27 1001.09 1001.67 1001.85 1002.53 1003.12 1003.49
1008.28 1008.14 1007.03 1006.00 1005.45 1004.93 1002.81 1001.88 1001.42 999.77 998.42 996.02 994.68 993.32 992.99 993.45 994.39 994.72 995.45 996.09 996.00 995.43 995.06 994.96 995.49 995.94 994.89 994.77 995.05 995.64 996.19 996.80 997.51 998.17 998.73 999.40 999.87 1000.47 1001.18 1001.69 1002.28 1002.90 1003.41 1003.83
1008.65 1008.26 1006.46 1004.84 1004.45 1004.47 1004.10 1003.19 1001.88 1000.17 999.19 997.16 995.45 993.89 993.90 993.99 995.24 995.58 995.88 996.18 996.14 995.80 995.25 995.00 995.72 996.35 994.96 994.97 995.31 995.85 996.42 996.89 997.59 998.30 999.00 999.70 1000.16 1000.72 1001.28 1001.83 1002.47 1003.05 1003.50 1003.88
1009.86 1008.09 1006.50 1004.15 1004.22 1004.15 1003.55 1003.11 1002.21 1000.85 1000.62 998.00 996.38 994.61 995.32 995.45 995.16 995.48 995.91 996.46 996.45 996.12 995.31 994.78 995.50 996.38 995.65 995.17 995.57 996.07 996.52 997.04 997.83 998.44 999.25 999.99 1000.39 1000.95 1001.49 1002.07 1002.63 1003.07 1003.59 1003.95
1010.35 1009.04 1007.53 1005.51 1003.83 1004.13 1004.01 1003.38 1002.57 1002.17 1000.41 998.61 996.95 995.51 995.08 995.09 995.00 995.64 996.23 996.80 996.71 996.22 995.47 994.76 994.90 996.31 996.34 995.45 995.70 996.21 996.68 997.42 998.04 998.72 999.47 1000.09 1000.69 1001.25 1001.71 1002.19 1002.71 1003.22 1003.57 1003.91
1010.10 1008.89 1007.30 1005.89 1005.11 1004.61 1003.95 1003.26 1002.49 1001.66 1000.82 999.65 998.10 997.01 996.29 995.97 996.16 996.48 996.92 997.03 996.49 995.91 995.45 995.09 994.82 996.02 996.45 995.87 996.03 996.48 997.09 997.71 998.33 998.88 999.63 1000.35 1001.03 1001.48 1001.86 1002.29 1002.74 1003.21 1003.57 1003.77
1009.66 1008.67 1007.46 1006.01 1005.10 1004.32 1003.33 1002.58 1001.78 1001.39 1000.88 1000.11 999.58 998.35 997.94 997.49 997.26 996.85 996.58 996.57 995.90 995.53 995.49 995.28 995.11 995.35 995.99 996.09 996.26 996.79 997.35 997.99 998.56 999.08 999.71 1000.44 1001.04 1001.50 1001.95 1002.44 1002.88 1003.33 1003.54 1003.76
1010.20 1008.88 1007.92 1005.81 1004.71 1004.42 1002.95 1001.17 1000.99 1000.74 1000.22 999.94 998.95 998.07 997.55 996.95 996.58 996.57 996.23 996.20 996.02 995.75 995.50 995.20 994.99 994.67 995.58 995.85 996.36 996.96 997.49 998.16 998.63 999.08 999.82 1000.40 1000.92 1001.46 1001.99 1002.38 1002.90 1003.31 1003.73 1004.13
1010.13 1009.38 1008.69 1006.60 1005.68 1004.35 1001.78 1002.33 1002.20 1001.89 1001.37 1000.84 1000.02 999.48 998.41 997.25 996.55 996.48 996.12 995.80 995.81 995.80 995.35 995.13 994.79 994.48 995.33 995.71 996.31 996.89 997.58 998.08 998.52 998.98 999.63 1000.25 1000.68 1001.35 1001.93 1002.39 1002.85 1003.36 1003.97 1004.25
1009.79 1009.78 1008.69 1007.18 1005.97 1004.38 1003.10 1003.27 1003.70 1003.62 1002.41 1002.21 1000.97 1000.08 998.56 997.71 996.63 995.78 996.02 995.77 995.78 995.72 995.46 994.93 994.41 994.24 995.20 995.71 996.10 996.71 997.40 997.89 998.26 998.77 999.44 1000.03 1000.53 1001.30 1001.91 1002.35 1002.95 1003.63 1003.99 1004.38
1009.35 1009.78 1009.17 1007.34 1006.20 1004.59 1004.07 1004.33 1005.09 1005.27 1003.20 1002.97 1002.66 1001.50 1000.08 999.60 997.01 995.44 995.27 995.28 995.50 995.64 995.42 994.99 994.19 994.20 995.16 995.64 995.95 996.54 997.20 997.67 998.05 998.58 999.28 999.91 1000.48 1001.27 1001.88 1002.47 1003.10 1003.52 1004.01 1004.46
1008.50 1008.75 1008.34 1006.93 1005.84 1004.36 1004.17 1004.67 1005.70 1005.03 1003.73 1003.13 1003.19 1002.33 1001.41 1000.33 999.36 997.74 996.60 996.38 996.06 995.46 995.06 994.68 993.97 994.09 995.02 995.45 995.86 996.41 996.98 997.45 997.90 998.53 999.22 999.96 1000.67 1001.33 1002.03 1002.86 1003.25 1003.59 1004.21 1004.68
1007.83 1007.38 1006.87 1006.65 1005.49 1003.99 1004.27 1004.83 1005.29 1003.71 1003.47 1003.74 1003.04 1002.45 1001.89 1000.65 999.34 998.67 997.46 996.45 995.60 994.88 994.39 993.68 993.44 993.90 994.81 995.16 995.72 996.18 996.84 997.38 997.87 998.48 999.18 999.98 1000.80 1001.33 1002.34 1002.86 1003.26 1003.95 1004.50 1004.85
1006.28 1006.38 1006.43 1006.38 1004.77 1003.89 1003.88 1004.31 1004.33 1004.10 1003.38 1003.19 1002.53 1002.02 1001.58 1000.56 999.57 998.62 997.25 996.02 995.04 994.36 993.66 992.90 993.20 993.68 994.48 994.84 995.39 995.91 996.71 997.32 997.87 998.57 999.29 1000.07 1000.86 1001.38 1002.32 1002.92 1003.58 1004.14 1004.65 1004.81
1005.79 1005.29 1005.48 1005.06 1003.64 1003.23 1003.29 1003.35 1003.42 1003.13 1002.58 1002.27 1001.79 1001.32 1000.70 999.81 998.94 997.75 996.42 995.43 994.53 993.52 993.01 992.67 992.75 993.39 994.01 994.59 995.18 995.87 996.65 997.27 997.97 998.69 999.48 1000.19 1000.79 1001.57 1002.40 1002.97 1003.82 1004.17 1004.50 1004.81
1005.55 1005.13 1004.77 1003.94 1003.09 1003.16 1003.18 1003.26 1002.61 1001.93 1001.66 1001.43 1000.93 1000.30 999.55 998.57 997.75 996.91 995.85 994.89 993.92 992.83 992.31 992.18 992.21 992.87 993.59 994.25 994.86 995.73 996.51 997.31 998.00 998.80 999.47 1000.13 1000.75 1001.43 1002.25 1003.10 1004.38 1004.54 1004.97 1005.21
1004.19 1004.35 1004.82 1003.61 1003.15 1003.46 1002.90 1002.23 1001.50 1001.23 1000.86 1000.49 1000.08 999.36 998.64 998.00 997.08 996.31 995.56 994.38 993.36 992.07 991.60 991.89 991.95 992.68 993.27 993.88 994.55 995.46 996.43 997.25 997.95 998.69 999.29 999.71 1000.47 1001.50 1002.38 1003.25 1004.61 1005.49 1005.64 1005.81
Wind_Speed
13 16 18 20 22 30 28 31 31 27 25 26 32 33 31 27 25 21 19 18 17 18 18 17 15 14 15 15 14 13 12 10 8 8 7 7 8 8 9 9 11 12 11 13
13 20 21 22 22 27 29 32 33 20 21 26 26 33 29 30 30 28 26 24 23 22 20 18 18 15 15 14 13 12 11 10 9 8 6 5 7 8 8 8 10 11 12 12
21 24 20 16 18 23 27 27 28 27 19 17 22 30 31 29 28 25 21 21 21 21 21 20 18 17 16 16 14 11 11 10 10 10 7 6 6 6 9 9 9 10 11 12
16 16 21 20 22 21 27 28 26 27 18 18 21 22 26 26 26 27 25 22 21 20 20 18 20 20 19 18 16 14 12 12 10 12 10 12 10 9 8 9 9 10 12 12
18 17 14 18 23 24 24 25 23 27 25 21 22 15 15 16 19 19 18 19 19 18 20 23 22 22 20 17 14 13 12 11 10 11 11 11 10 7 8 9 13 11 10 11
22 19 12 16 21 18 17 23 18 20 21 22 28 22 14 17 21 18 17 17 16 17 12 15 14 13 15 14 13 11 11 9 10 11 12 12 10 10 10 11 11 10 10 9
12 19 18 14 23 13 19 17 11 15 17 18 28 25 17 7 8 11 11 3 6 8 9 10 10 9 9 11 14 12 11 10 11 12 12 12 12 12 13 13 10 11 9 8
10 8 13 18 21 15 20 18 13 16 18 16 18 14 17 19 24 13 7 1 2 6 8 9 10 11 10 10 12 13 12 12 13 14 13 12 14 10 10 9 10 8 8 8
7 4 4 11 18 23 18 20 20 25 19 15 18 20 22 8 10 10 8 3 6 9 10 10 12 10 8 9 11 12 13 14 15 15 13 13 11 12 10 11 10 7 8 8
5 11 7 5 16 19 21 14 18 8 18 17 14 18 13 23 24 19 13 5 7 11 13 13 10 9 5 8 10 12 14 16 15 15 14 12 13 13 12 11 10 9 8 8
12 7 2 8 7 4 13 14 11 15 16 11 14 15 14 14 12 12 11 7 10 13 14 13 10 8 5 8 12 13 14 16 15 14 14 14 14 14 12 11 10 9 8 8
7 8 11 12 7 6 7 10 13 10 17 14 11 7 5 16 15 9 7 8 13 14 14 12 10 5 4 10 13 14 14 15 15 15 15 14 14 13 12 10 9 8 8 8
10 5 10 3 8 9 9 9 15 13 9 15 15 4 11 12 7 4 9 11 13 15 16 12 10 5 5 10 12 14 14 14 14 15 15 14 13 12 11 10 9 9 9 9
9 12 15 14 14 8 8 11 9 12 13 14 16 18 17 15 9 12 14 14 17 17 16 13 9 4 6 9 12 13 14 14 15 14 14 13 12 11 10 10 10 10 10 9
7 12 16 16 15 14 16 17 17 19 18 18 18 18 18 19 18 17 18 18 21 17 15 13 13 5 7 10 12 13 13 14 14 14 13 12 11 11 10 10 11 10 9 9
7 6 11 15 14 15 19 21 23 21 21 19 21 24 23 22 22 21 21 19 17 16 14 13 14 6 9 10 12 13 14 14 13 13 13 13 11 10 10 10 10 10 10 9
6 6 5 12 5 11 15 19 19 19 20 17 20 17 17 19 20 19 21 18 16 17 15 14 12 3 10 13 12 14 14 14 13 13 13 12 11 10 9 10 10 10 9 9
6 8 6 8 5 8 6 8 8 9 14 16 18 16 22 20 20 20 18 17 15 15 15 14 11 3 10 12 15 15 14 14 13 13 13 12 10 10 9 9 10 10 8 8
14 10 5 5 7 16 19 1 4 8 20 15 20 20 22 21 18 17 16 15 15 16 11 15 9 5 10 13 16 16 15 14 14 14 13 11 10 10 9 9 9 9 8 7
6 8 4 6 5 5 2 3 2 8 12 10 9 10 15 15 11 9 5 4 7 12 12 12 11 6 14 13 17 17 16 15 15 14 13 11 11 10 10 9 9 9 8 7
3 3 12 13 7 8 6 11 2 5 4 11 10 14 15 12 12 20 17 16 16 14 15 13 13 9 12 16 17 17 17 15 14 14 13 11 10 10 10 9 8 8 7 7
3 5 1 2 6 3 13 14 5 10 18 17 17 15 15 18 17 17 19 18 17 15 14 13 9 12 13 17 17 17 16 15 14 14 13 11 10 9 9 10 8 8 8 7
4 4 4 4 6 13 15 13 16 18 17 16 16 16 16 18 17 17 18 18 15 14 12 10 10 14 15 18 17 17 16 16 15 13 12 11 11 9 9 9 9 8 8 7
7 8 4 11 8 15 17 16 12 15 17 16 14 17 17 19 17 19 17 15 14 12 11 10 14 17 17 18 17 16 17 16 15 14 13 11 10 10 10 7 7 7 6 5
9 9 9 14 14 21 9 15 17 16 10 12 14 14 17 16 18 17 16 15 13 12 10 12 15 16 18 19 18 17 17 16 15 14 12 11 10 9 8 6 4 7 6 3
4 5 3 10 20 12 16 17 18 12 13 12 15 16 14 15 16 16 14 15 13 11 12 13 15 17 18 19 18 18 18 16 15 14 11 10 10 9 7 7 7 14 10 9
Wind_Direction
254 247 254 261 252 251 261 267 250 245 248 227 221 239 244 245 248 243 244 241 240 248 257 268 266 262 257 257 262 257 254 239 228 215 210 210 209 203 199 197 191 188 187 190
255 249 254 271 274 257 245 252 257 262 269 243 233 237 243 245 246 248 250 251 257 261 261 261 261 259 259 264 261 260 255 246 230 223 220 218 203 194 192 188 183 184 183 179
268 264 269 266 259 254 253 252 247 252 266 243 249 247 245 239 243 251 258 258 262 267 270 269 272 269 267 258 255 259 258 251 232 230 198 185 164 163 190 176 173 173 175 176
277 280 261 254 254 251 248 245 244 253 236 225 216 249 233 230 242 243 245 250 253 256 258 262 264 265 261 261 261 259 251 253 225 204 195 187 187 182 184 175 155 159 170 172
268 287 252 252 254 247 253 241 241 230 246 250 244 240 252 254 244 240 242 251 253 255 261 263 266 264 263 260 258 252 249 238 221 196 206 184 214 162 162 154 145 147 156 165
269 265 259 268 303 239 259 225 238 243 229 233 236 248 247 245 245 244 236 248 257 258 262 267 264 266 259 251 240 233 225 215 199 192 191 197 178 158 150 147 151 153 155 163
322 252 225 251 278 237 269 210 204 215 216 222 221 231 238 213 9 261 244 248 248 260 276 279 279 273 261 234 228 211 203 191 179 175 170 169 160 156 147 153 151 147 151 159
338 311 275 197 245 268 205 229 229 218 210 215 229 223 226 239 250 263 268 136 252 343 328 308 301 290 272 226 208 200 184 169 168 159 150 148 149 148 143 150 138 153 156 161
307 305 278 273 218 254 241 234 237 247 264 248 206 212 258 220 210 207 166 152 22 0 357 337 324 302 272 223 191 185 169 159 159 144 142 142 140 144 133 131 150 145 137 133
291 293 271 270 304 249 257 259 232 223 232 222 217 210 225 208 223 228 235 75 13 2 0 356 342 328 272 186 167 167 160 157 146 143 142 138 137 131 136 140 137 143 133 146
306 277 271 237 239 285 221 236 253 256 228 244 226 208 201 147 117 109 99 56 14 13 355 1 7 346 260 163 156 155 153 145 144 142 137 139 136 133 137 136 139 142 144 153
4 296 290 285 170 180 260 282 264 236 223 250 298 92 134 119 126 114 71 23 7 358 354 7 26 7 216 159 149 150 146 145 141 138 140 137 135 135 136 137 141 143 149 158
1 284 309 246 176 191 230 245 279 279 307 259 233 166 140 152 168 44 2 353 345 343 347 0 30 39 281 149 150 146 148 140 142 141 138 139 135 137 137 141 142 151 151 153
299 278 266 281 307 312 290 281 243 264 270 243 249 258 182 202 295 318 321 321 321 325 333 351 24 63 258 159 148 148 142 142 141 141 139 136 138 141 143 142 147 150 156 158
254 267 267 266 276 278 276 273 265 252 255 265 270 266 267 280 296 308 303 299 299 304 321 344 345 104 232 170 151 147 145 145 146 143 139 138 142 144 141 144 151 152 154 161
235 262 281 280 267 262 271 262 251 247 246 253 258 262 269 274 277 279 284 289 299 308 316 326 324 121 219 167 162 151 152 149 149 146 141 145 149 146 145 149 151 156 161 165
278 278 286 265 323 301 271 253 252 253 253 259 259 267 276 277 277 272 277 284 294 296 298 316 317 298 193 171 167 164 155 156 152 149 145 148 148 149 153 155 160 165 166 169
232 243 266 282 301 247 55 39 335 321 307 306 284 280 276 280 274 268 273 277 282 288 297 301 301 266 169 178 166 162 157 159 159 152 150 148 154 148 152 157 169 168 170 175
225 229 240 253 232 276 287 356 335 347 303 287 279 276 273 270 283 268 257 266 272 274 298 301 279 234 155 181 167 163 161 167 164 158 154 154 147 150 156 163 165 160 167 163
201 221 270 209 244 268 91 117 41 327 270 35 342 306 295 320 279 255 254 281 306 291 294 295 302 195 163 183 170 165 165 169 167 159 157 155 150 152 161 154 161 161 154 152
290 175 223 244 262 268 66 356 61 236 15 334 322 297 298 302 273 310 309 297 290 286 289 281 270 191 167 180 169 170 166 171 164 156 152 151 151 159 140 152 156 148 143 149
289 315 339 259 258 256 343 328 228 307 309 299 291 283 288 282 291 290 288 288 284 288 282 264 215 179 172 174 173 171 169 169 163 158 154 152 155 160 154 156 142 140 148 147
290 355 302 227 269 290 287 286 282 281 263 270 275 272 272 275 275 283 277 279 282 281 275 247 184 168 175 171 176 166 167 168 160 156 154 151 162 157 155 155 143 146 160 159
304 307 268 306 318 302 325 301 283 276 258 264 266 269 264 266 271 269 272 272 273 261 238 217 186 168 170 173 172 165 166 163 158 157 153 152 163 150 159 154 152 154 155 165
273 303 322 294 314 325 312 299 294 295 252 263 269 274 265 267 267 264 272 272 262 256 220 201 178 167 170 172 169 166 164 163 158 159 156 159 142 175 145 126 89 147 167 205
237 311 277 311 315 314 310 302 296 315 302 277 270 274 263 258 261 265 263 263 269 233 203 188 171 171 166 169 167 165 164 164 162 163 164 167 156 144 149 151 126 44 43 53